Home > Weather > Ålesund > Past weeks

Flag for Norway Past Weather in Ålesund, Norway — Yesterday and Last 2 Weeks

Now
57 °F

Partly sunny.


Feels Like: 55 °F
Forecast: 54 / 58 °F
Wind: 12 mph from Northeast

Location: Alesund / Vigra

Current Time: Aug 25, 2016 at 8:53:09 PM

Latest Report: Aug 25, 2016 at 8:20 PM


Visibility: N/A

Pressure: 30.07 "Hg

Humidity: 77%

Dew Point: 50 °F

Location of ÅlesundLocation

Past Weather in Ålesund — Graph

°F

Ålesund Temperature Yesterday

Maximum temperature yesterday: 61 °F (at 1:50 PM)
Minimum temperature yesterday: 55 °F (at 9:20 PM)
Average temperature yesterday: 59 °F

High & Low Weather Summary for the Past Weeks

 TemperatureHumidityPressure
High68 °F (Aug 17, 12:50 PM)100% (Aug 12, 9:20 PM)30.30 "Hg (Aug 12, 9:20 PM)
Low45 °F (Aug 10, 11:20 PM)49% (Aug 14, 4:20 PM)29.47 "Hg (Aug 12, 5:50 PM)
Average57 °F86%29.98 "Hg
* Reported Aug 10 7:20 PM — Aug 25 7:50 PM, Ålesund, Weather by CustomWeather, © 2016

Note: Actual official high and low records may vary slightly from our data, if they occured in-between our weather recording intervals... More about our weather records

Advertising

Ålesund Weather History for the Previous 24 Hours

Scroll right to see more
 ConditionsComfort  
Time TempWeatherWind HumidityBarometerVisibility
7:50 PM
Thu, Aug 25
57 °FPartly sunny.13 mph82%30.07 "HgN/A
7:20 PM57 °FPartly sunny.13 mph82%30.07 "HgN/A
6:50 PM57 °FPartly sunny.13 mph82%30.07 "HgN/A
6:20 PM57 °FPartly sunny.13 mph77%30.07 "HgN/A
5:50 PM57 °FPartly sunny.12 mph77%30.09 "HgN/A
5:20 PM57 °FPartly sunny.12 mph82%30.09 "HgN/A
4:50 PM57 °FPartly sunny.10 mph77%30.09 "HgN/A
4:20 PM57 °FPartly sunny.12 mph82%30.09 "HgN/A
3:50 PM57 °FPartly sunny.10 mph77%30.09 "HgN/A
3:20 PM55 °FPartly sunny.12 mph82%30.12 "HgN/A
2:50 PM57 °FPartly sunny.10 mph77%30.12 "HgN/A
2:20 PM57 °FPartly sunny.9 mph82%30.12 "HgN/A
1:50 PM55 °FPartly sunny.7 mph82%30.12 "HgN/A
1:20 PM55 °FPartly sunny.7 mph82%30.12 "HgN/A
12:50 PM55 °FPartly sunny.9 mph88%30.12 "HgN/A
12:20 PM55 °FPartly sunny.7 mph88%30.12 "HgN/A
11:50 AM57 °FPartly sunny.8 mph77%30.12 "HgN/A
11:20 AM57 °FPartly sunny.9 mph77%30.12 "HgN/A
10:50 AM57 °FPartly sunny.9 mph77%30.12 "HgN/A
10:20 AM55 °FPartly sunny.9 mph82%30.12 "HgN/A
9:50 AM55 °FPartly sunny.6 mph82%30.12 "HgN/A
9:20 AM55 °FPartly sunny.6 mph82%30.15 "HgN/A
8:50 AM55 °FBroken clouds.5 mph82%30.12 "HgN/A
8:20 AM55 °FBroken clouds.6 mph82%30.12 "HgN/A
7:50 AM55 °FBroken clouds.5 mph88%30.12 "HgN/A
7:20 AM55 °FBroken clouds.7 mph88%30.12 "HgN/A
6:50 AM55 °FPartly cloudy.7 mph88%30.12 "HgN/A
6:20 AM55 °FPartly cloudy.8 mph88%30.12 "HgN/A
5:50 AM57 °FPartly cloudy.7 mph88%30.12 "HgN/A
5:20 AM57 °FMostly cloudy.5 mph82%30.12 "HgN/A
4:50 AM57 °FOvercast.6 mph82%30.12 "HgN/A
4:20 AM57 °FOvercast.7 mph82%30.12 "HgN/A
3:50 AM57 °FOvercast.8 mph82%30.12 "HgN/A
3:20 AM57 °FOvercast.7 mph82%30.12 "HgN/A
2:50 AM57 °FOvercast.7 mph77%30.12 "HgN/A
2:20 AM57 °FOvercast.8 mph82%30.12 "HgN/A
1:50 AM55 °FOvercast.8 mph88%30.12 "HgN/A
1:20 AM55 °FOvercast.9 mph88%30.12 "HgN/A
12:50 AM57 °FOvercast.9 mph82%30.12 "HgN/A
12:20 AM57 °FMostly cloudy.9 mph88%30.12 "HgN/A
11:50 PM
Wed, Aug 24
57 °FOvercast.9 mph88%30.09 "HgN/A
11:20 PM57 °FOvercast.9 mph88%30.09 "HgN/A
10:50 PM57 °FOvercast.12 mph88%30.09 "HgN/A
10:20 PM57 °FPassing clouds.10 mph88%30.09 "HgN/A
9:50 PM57 °FPartly sunny.12 mph88%30.07 "HgN/A
9:20 PM55 °FPartly sunny.14 mph94%30.07 "HgN/A
8:50 PM57 °FBroken clouds.16 mph94%30.07 "HgN/A
8:20 PM59 °FBroken clouds.15 mph88%30.04 "HgN/A
Weather by CustomWeather, © 2016

See weather overviewHow to use our weather pages